Weather History for Wakefield, VA

Change the Weather History Date:

Tuesday, January 8, 2013

  Actual Average (KJGG) Record (KJGG)
Temperature  
Mean Temperature 40 °F -  
Max Temperature 54 °F 46 °F 73 °F (2008)
Min Temperature 25 °F 28 °F 9 °F (1968)
Degree Days  
Heating Degree Days 26    
Moisture  
Dew Point 30 °F    
Average Humidity 76    
Maximum Humidity 93    
Minimum Humidity 47    
Precipitation  
Precipitation 0.00 in - - ()
Sea Level Pressure  
Sea Level Pressure 30.44 in    
Wind  
Wind Speed 0 mph (North)    
Max Wind Speed 5 mph    
Max Gust Speed -    
Visibility 8 miles    
Events      
Averages and records for this station are not official NWS values.
T = Trace of Precipitation, MM = Missing Value Source: NWS Daily Summary

Daily Weather History Graph

Daily Weather History Graph

Search for Another Location

Airport:

Trip Planner

Search our weather history database for the weather conditions in past years. The results will help you decide how hot, cold, wet, or windy it might be!

Date:

Astronomy

Jan. 08, 2013 Rise Set
Actual Time 7:21 AM EST 5:08 PM EST
Civil Twilight 6:52 AM EST 5:37 PM EST
Nautical Twilight 6:20 AM EST 6:09 PM EST
Astronomical Twilight 5:49 AM EST 6:40 PM EST
Moon 3:52 AM EST (1/8) 2:08 PM EST (1/8)
Length of Visible Light 10h 44m
Length of Day
9h 46m
Waning Crescent, 14% of the Moon is Illuminated
Jan 8
Waning Crescent
Jan 11
New
Jan 18
First Quarter
Jan 26
Full
Feb 3
Last Quarter

Hourly Weather History & Observations

Time (EST) Temp. Dew Point Humidity Pressure Visibility Wind Dir Wind Speed Gust Speed Precip Events Conditions
12:54 AM 27.0 °F 25.0 °F 92% 30.45 in 6.0 mi Calm Calm - N/A   Clear
1:54 AM 27.0 °F 24.1 °F 89% 30.45 in 6.0 mi Calm Calm - N/A   Clear
2:54 AM 27.0 °F 24.1 °F 89% 30.45 in 6.0 mi Calm Calm - N/A   Clear
3:54 AM 26.1 °F 21.9 °F 84% 30.44 in 5.0 mi Calm Calm - N/A   Clear
4:54 AM 25.0 °F 21.9 °F 88% 30.44 in 5.0 mi Calm Calm - N/A   Clear
5:54 AM 25.0 °F 21.0 °F 85% 30.45 in 7.0 mi Calm Calm - N/A   Clear
6:54 AM 25.0 °F 21.9 °F 88% 30.46 in 6.0 mi Calm Calm - N/A   Clear
7:54 AM 26.1 °F 23.0 °F 88% 30.46 in 3.0 mi Calm Calm - N/A   Clear
8:54 AM 33.1 °F 30.0 °F 89% 30.49 in 4.0 mi Calm Calm - N/A   Clear
9:54 AM 42.1 °F 34.0 °F 73% 30.48 in 8.0 mi Calm Calm - N/A   Clear
10:54 AM 48.0 °F 33.1 °F 56% 30.48 in 10.0 mi South 4.6 mph - N/A   Overcast
11:54 AM 51.1 °F 32.0 °F 48% 30.45 in 10.0 mi Calm Calm - N/A   Mostly Cloudy
12:54 PM 53.1 °F 33.1 °F 47% 30.41 in 10.0 mi Calm Calm - N/A   Mostly Cloudy
1:54 PM 54.0 °F 34.0 °F 47% 30.40 in 10.0 mi Calm Calm - N/A   Overcast
2:54 PM 54.0 °F 35.1 °F 49% 30.40 in 10.0 mi Calm Calm - N/A   Overcast
3:54 PM 53.1 °F 36.0 °F 52% 30.41 in 10.0 mi Calm Calm - N/A   Overcast
4:54 PM 51.1 °F 37.9 °F 61% 30.41 in 10.0 mi Calm Calm - N/A   Overcast
5:54 PM 44.1 °F 37.9 °F 79% 30.42 in 10.0 mi Calm Calm - N/A   Clear
6:54 PM 39.9 °F 36.0 °F 86% 30.42 in 9.0 mi Calm Calm - N/A   Clear
7:54 PM 41.0 °F 36.0 °F 82% 30.42 in 8.0 mi Calm Calm - N/A   Mostly Cloudy
8:54 PM 37.9 °F 34.0 °F 86% 30.42 in 7.0 mi Calm Calm - N/A   Clear
9:54 PM 36.0 °F 34.0 °F 93% 30.42 in 7.0 mi Calm Calm - N/A   Clear
10:54 PM 36.0 °F 34.0 °F 93% 30.43 in 6.0 mi Calm Calm - N/A   Mostly Cloudy